Location: Slanting_Bridge
(35.6330°N, 80.9830°W)
Time: 14:50:32
(UTC-04:00)

Amateur Radio Satellites - All Passes

Search period start: 29 July 2014 14:20
Search period end: 30 July 2014 14:20
Location: Slanting_Bridge, 35.6330°N, 80.9830°W

Satellite Date Start Highest point End Downlink Frequencies (MHz)
Time Altitude Azimuth
SO-50 29 Jul 14:34:10 14:36:17 13° 315° (NW) 14:38:24 436.795 FM
Oscar 16 29 Jul 14:34:19 14:39:20 57° 259° (W) 14:44:23 437.025 USB, Beacon 2401.1428
UOSAT-12 29 Jul 14:49:05 14:53:38 81° 118° (ESE) 14:58:19 437.025 FM, 437.400 FM
ITAMSAT 1 29 Jul 14:55:54 15:01:07 83° 257° (WSW) 15:06:22 435.822 SSB
RS-15 29 Jul 15:09:08 15:19:56 54° 307° (NW) 15:30:35 29.354 - 29.394 USB, Beacon 29.352 USB
AO-27 29 Jul 15:15:27 15:20:31 52° 260° (W) 15:25:37 436.795 MHz FM
Uribyol 2 29 Jul 15:15:30 15:20:31 49° 260° (W) 15:25:34 436.500 FM
KITSAT 1 29 Jul 15:15:48 15:23:11 37° 52° (NE) 15:30:29 435.175 FM
TMSAT-1 29 Jul 15:16:02 15:21:01 43° 72° (ENE) 15:26:01 436.925 FM
Gurwin Techsat 1B 29 Jul 15:40:23 15:45:41 78° 257° (WSW) 15:51:01 435.225 FM
AO-7 29 Jul 15:43:19 15:50:22 32° 61° (ENE) 15:57:25 29.400 - 29.500 MHz
Oscar 19 29 Jul 15:49:21 15:50:37 11° 269° (W) 15:51:53 437.125 CW, 437.150 USB
JAS-1B 29 Jul 15:57:01 16:05:30 59° 261° (W) 16:15:09 435.800 - 435.900 CW/SSB
AO-Echo 29 Jul 15:58:43 16:02:33 20° 266° (W) 16:06:24 ?
Uosat F 29 Jul 16:16:37 16:21:12 36° 70° (ENE) 16:25:47 435.120 FM
UOSAT-12 29 Jul 16:32:24 16:34:23 13° 316° (NW) 16:36:24 437.025 FM, 437.400 FM
Saudisat 1A 29 Jul 16:34:20 16:38:11 29° 53° (NE) 16:42:00 436.775 MHz
TMSAT-1 29 Jul 16:57:16 17:01:05 20° 266° (W) 17:04:54 436.925 FM
KITSAT 1 29 Jul 17:11:03 17:18:40 47° 250° (WSW) 17:26:14 435.175 FM
OPAL 29 Jul 17:12:41 17:17:38 50° 102° (ESE) 17:22:36 ?
JAS-2 29 Jul 17:13:32 17:17:50 16° 61° (ENE) 17:21:59 435.800 - 435.900 CW/SSB, 435.910 FM
RS-15 29 Jul 17:29:10 17:35:37 17° 336° (NNW) 17:42:05 29.354 - 29.394 USB, Beacon 29.352 USB
AO-7 29 Jul 17:34:35 17:42:41 55° 257° (WSW) 17:50:52 29.400 - 29.500 MHz
Uosat F 29 Jul 17:56:09 18:00:01 22° 265° (W) 18:03:55 435.120 FM
Saudisat 1A 29 Jul 18:14:02 18:17:38 25° 248° (WSW) 18:21:12 436.775 MHz
Hamsat 29 Jul 18:18:04 18:22:01 43° 74° (ENE) 18:26:00 145.90 MHz
OPAL 29 Jul 18:52:46 18:56:06 18° 297° (WNW) 18:59:27 ?
JAS-2 29 Jul 18:54:04 19:01:56 86° 76° (ENE) 19:09:22 435.800 - 435.900 CW/SSB, 435.910 FM
STRAND 1 29 Jul 19:37:06 19:41:46 35° 98° (E) 19:46:24 ?
HO-68 29 Jul 19:41:37 19:42:23 10° 53° (NE) 19:43:09 435.675 MHz FM
RS-15 29 Jul 19:49:53 19:54:50 14° 15° (NNE) 19:59:49 29.354 - 29.394 USB, Beacon 29.352 USB
SO-67 29 Jul 19:52:48 19:56:16 88° 75° (ENE) 19:59:45 435.3500 MHz FM
Hamsat 29 Jul 19:56:26 19:58:11 12° 268° (W) 19:59:57 145.90 MHz
UKube-1 29 Jul 20:39:48 20:40:21 10° 64° (ENE) 20:40:55 145.840 MHz, 145.915 MHz
JAS-2 29 Jul 20:42:58 20:47:27 16° 269° (W) 20:51:50 435.800 - 435.900 CW/SSB, 435.910 FM
MaSat-1 29 Jul 20:50:25 20:53:27 22° 102° (ESE) 20:56:50 437.345 MHz
STRAND 1 29 Jul 21:16:45 21:20:44 24° 293° (WNW) 21:24:41 ?
HO-68 29 Jul 21:21:38 21:28:42 64° 71° (ENE) 21:35:46 435.675 MHz FM
Oscar 11 29 Jul 21:22:05 21:24:32 15° 67° (ENE) 21:26:59 145.825 FM, Beacon 2401.500 USB
SO-50 29 Jul 21:25:22 21:29:34 30° 53° (NE) 21:33:49 436.795 FM
RS-15 29 Jul 22:01:39 22:11:45 39° 47° (NE) 22:22:06 29.354 - 29.394 USB, Beacon 29.352 USB
UKube-1 29 Jul 22:11:38 22:15:58 65° 258° (WSW) 22:20:19 145.840 MHz, 145.915 MHz
MaSat-1 29 Jul 22:27:00 22:30:31 28° 303° (WNW) 22:34:32 437.345 MHz
Oscar 11 29 Jul 22:56:18 23:00:21 40° 261° (W) 23:04:25 145.825 FM, Beacon 2401.500 USB
SO-50 29 Jul 23:05:58 23:10:03 28° 248° (WSW) 23:14:09 436.795 FM
HO-68 29 Jul 23:11:44 23:16:48 21° 266° (W) 23:21:54 435.675 MHz FM
FUNcube-1 29 Jul 23:19:51 23:24:09 64° 259° (W) 23:28:23 145.950 - 145.970 MHz USB
UOSAT-12 29 Jul 23:21:48 23:26:02 32° 53° (NE) 23:30:12 437.025 FM, 437.400 FM
ISS 29 Jul 23:39:52 23:43:11 77° 319° (NW) 23:46:32 145.800 FM
Sapphire 30 Jul 00:13:18 00:17:40 26° 107° (ESE) 00:22:03 437.095 MHz 1200 baud AX-25 AFSK
RS-15 30 Jul 00:13:45 00:24:33 61° 248° (WSW) 00:35:49 29.354 - 29.394 USB, Beacon 29.352 USB
PCSat 30 Jul 00:45:31 00:50:47 57° 112° (ESE) 00:56:05 145.825 MHz
UOSAT-12 30 Jul 01:02:10 01:06:02 26° 249° (WSW) 01:09:51 437.025 FM, 437.400 FM
ISS 30 Jul 01:18:56 01:20:23 12° 336° (NNW) 01:21:50 145.800 FM
Sapphire 30 Jul 01:55:52 02:00:51 38° 303° (WNW) 02:05:53 437.095 MHz 1200 baud AX-25 AFSK
AO-40 30 Jul 02:07:39 03:59:33 31° 215° (SW) 08:12:47 Beacon 2401.320
Oscar 19 30 Jul 02:20:42 02:25:18 32° 97° (E) 02:29:53 437.125 CW, 437.150 USB
AO-Echo 30 Jul 02:30:28 02:33:40 17° 93° (E) 02:36:47 ?
PCSat 30 Jul 02:30:44 02:34:33 19° 309° (NW) 02:38:24 145.825 MHz
Oscar 16 30 Jul 02:48:52 02:54:01 65° 102° (ESE) 02:59:08 437.025 USB, Beacon 2401.1428
Oscar 10/S400 30 Jul 03:01:28 03:54:29 67° 202° (SSW) 13:05:37 145.825 - 145.975 CW/USB, Beacon 145.810 USB
ITAMSAT 1 30 Jul 03:12:02 03:16:59 45° 99° (E) 03:21:54 435.822 SSB
Uribyol 2 30 Jul 03:31:04 03:36:14 76° 103° (ESE) 03:41:22 436.500 FM
AO-27 30 Jul 03:31:23 03:36:34 73° 102° (ESE) 03:41:43 436.795 MHz FM
TMSAT-1 30 Jul 03:35:33 03:39:35 22° 95° (E) 03:43:35 436.925 FM
PANSAT 30 Jul 03:46:55 03:48:03 11° 159° (SSE) 03:49:10 not established
JAS-1B 30 Jul 03:47:31 03:56:37 62° 100° (E) 04:04:14 435.800 - 435.900 CW/SSB
Gurwin Techsat 1B 30 Jul 03:59:44 04:04:56 54° 100° (E) 04:10:06 435.225 FM
Oscar 19 30 Jul 04:00:13 04:04:29 27° 292° (WNW) 04:08:45 437.125 CW, 437.150 USB
AO-Echo 30 Jul 04:07:53 04:12:40 44° 288° (WNW) 04:17:16 ?
OPAL 30 Jul 04:24:56 04:29:48 64° 72° (ENE) 04:34:43 ?
Uosat F 30 Jul 04:28:54 04:31:23 14° 92° (E) 04:33:51 435.120 FM
Oscar 16 30 Jul 04:30:15 04:32:46 14° 297° (WNW) 04:35:18 437.025 USB, Beacon 2401.1428
ITAMSAT 1 30 Jul 04:52:31 04:56:07 19° 294° (WNW) 04:59:42 435.822 SSB
Uribyol 2 30 Jul 05:13:14 05:15:01 12° 298° (WNW) 05:16:48 436.500 FM
AO-27 30 Jul 05:13:22 05:15:24 12° 298° (WNW) 05:17:27 436.795 MHz FM
TMSAT-1 30 Jul 05:14:41 05:19:35 39° 289° (WNW) 05:24:27 436.925 FM
PANSAT 30 Jul 05:24:30 05:27:39 24° 171° (S) 05:30:47 not established
JAS-1B 30 Jul 05:38:50 05:46:17 29° 300° (WNW) 05:52:56 435.800 - 435.900 CW/SSB
AO-7 30 Jul 05:39:15 05:47:31 64° 104° (ESE) 05:55:42 29.400 - 29.500 MHz
KITSAT 1 30 Jul 05:40:59 05:48:08 36° 107° (ESE) 05:55:18 435.175 FM
Gurwin Techsat 1B 30 Jul 05:41:05 05:44:25 17° 295° (WNW) 05:47:44 435.225 FM
Uosat F 30 Jul 06:05:35 06:10:29 56° 287° (WNW) 06:15:21 435.120 FM
OPAL 30 Jul 06:07:23 06:09:04 12° 266° (W) 06:10:46 ?
ISS 30 Jul 06:11:10 06:14:16 33° 36° (NE) 06:17:21 145.800 FM
Saudisat 1A 30 Jul 06:39:45 06:42:08 14° 109° (ESE) 06:44:30 436.775 MHz
MaSat-1 30 Jul 06:47:31 06:52:23 36° 60° (ENE) 06:56:56 437.345 MHz
STRAND 1 30 Jul 06:50:09 06:54:53 39° 71° (ENE) 06:59:38 ?
PANSAT 30 Jul 07:04:05 07:07:24 27° 184° (S) 07:10:43 not established
AO-7 30 Jul 07:33:06 07:39:39 27° 301° (WNW) 07:46:11 29.400 - 29.500 MHz
KITSAT 1 30 Jul 07:35:35 07:43:17 47° 305° (NW) 07:51:03 435.175 FM
Hamsat 30 Jul 07:42:15 07:46:29 58° 285° (WNW) 07:50:45 145.90 MHz
ISS 30 Jul 07:48:16 07:50:49 20° 231° (SW) 07:53:22 145.800 FM
JAS-2 30 Jul 07:53:29 07:59:18 81° 285° (WNW) 08:04:34 435.800 - 435.900 CW/SSB, 435.910 FM
Saudisat 1A 30 Jul 08:17:01 08:21:17 48° 303° (WNW) 08:25:34 436.775 MHz
MaSat-1 30 Jul 08:25:17 08:29:28 25° 257° (WSW) 08:33:25 437.345 MHz
STRAND 1 30 Jul 08:30:17 08:34:09 21° 265° (W) 08:38:02 ?
PANSAT 30 Jul 08:44:34 08:47:05 17° 196° (SSW) 08:49:36 not established
SO-67 30 Jul 08:52:37 08:55:58 46° 284° (WNW) 08:59:18 435.3500 MHz FM
HO-68 30 Jul 08:56:02 08:58:38 12° 90° (E) 09:01:14 435.675 MHz FM
Sapphire 30 Jul 09:05:00 09:07:32 13° 46° (NE) 09:10:03 437.095 MHz 1200 baud AX-25 AFSK
PCSat 30 Jul 09:36:53 09:41:21 25° 54° (NE) 09:45:48 145.825 MHz
KITSAT 1 30 Jul 09:38:50 09:41:01 11° 329° (NNW) 09:43:13 435.175 FM
UKube-1 30 Jul 10:03:25 10:07:04 26° 97° (E) 10:10:41 145.840 MHz, 145.915 MHz
HO-68 30 Jul 10:39:58 10:47:09 87° 106° (ESE) 10:54:17 435.675 MHz FM
Sapphire 30 Jul 10:46:14 10:51:41 89° 245° (WSW) 10:57:06 437.095 MHz 1200 baud AX-25 AFSK
Oscar 11 30 Jul 10:46:40 10:50:48 42° 99° (E) 10:54:56 145.825 FM, Beacon 2401.500 USB
FUNcube-1 30 Jul 11:12:14 11:15:51 28° 97° (E) 11:19:31 145.950 - 145.970 MHz USB
PCSat 30 Jul 11:19:49 11:24:52 40° 250° (WSW) 11:29:53 145.825 MHz
SO-50 30 Jul 11:39:00 11:41:54 17° 109° (ESE) 11:44:49 436.795 FM
UKube-1 30 Jul 11:39:41 11:43:08 23° 291° (WNW) 11:46:33 145.840 MHz, 145.915 MHz
RS-15 30 Jul 12:23:25 12:32:21 29° 104° (ESE) 12:41:04 29.354 - 29.394 USB, Beacon 29.352 USB
Oscar 11 30 Jul 12:24:12 12:26:36 15° 293° (WNW) 12:29:00 145.825 FM, Beacon 2401.500 USB
HO-68 30 Jul 12:29:51 12:33:54 16° 303° (WNW) 12:37:56 435.675 MHz FM
FUNcube-1 30 Jul 12:49:02 12:52:04 20° 291° (WNW) 12:55:08 145.950 - 145.970 MHz USB
SO-50 30 Jul 13:17:52 13:22:05 41° 305° (NW) 13:26:23 436.795 FM
UOSAT-12 30 Jul 13:31:28 13:34:29 18° 109° (ESE) 13:37:33 437.025 FM, 437.400 FM
Oscar 19 30 Jul 13:34:52 13:39:26 34° 70° (ENE) 13:44:01 437.125 CW, 437.150 USB
KITSAT 1 30 Jul 13:38:47 13:42:04 13° 34° (NNE) 13:45:21 435.175 FM
AO-Echo 30 Jul 13:40:19 13:43:57 19° 66° (ENE) 13:47:34 ?
Oscar 16 30 Jul 14:02:55 14:08:00 70° 75° (ENE) 14:13:06 437.025 USB, Beacon 2401.1428
